TimeCDT,TemperatureF,Dew PointF,Humidity,Sea Level PressureIn,VisibilityMPH,Wind Direction,Wind SpeedMPH,Gust SpeedMPH,PrecipitationIn,Events,Conditions,WindDirDegrees,DateUTC
12:53 AM,62.1,44.1,52,29.94,10.0,North,10.4,-,N/A,,Mostly Cloudy,360,2012-09-17 05:53:00
1:39 AM,60.8,41.0,48,29.90,10.0,NNE,15.0,-,N/A,,Mostly Cloudy,20,2012-09-17 06:39:00
1:53 AM,60.1,41.0,49,29.93,10.0,North,6.9,-,N/A,,Mostly Cloudy,360,2012-09-17 06:53:00
2:53 AM,59.0,44.1,58,29.96,10.0,NNW,8.1,-,0.00,,Overcast,340,2012-09-17 07:53:00
3:53 AM,54.0,48.9,83,29.93,8.0,North,10.4,-,0.03,Rain,Light Rain,10,2012-09-17 08:53:00
4:51 AM,53.6,51.8,94,29.97,5.0,NW,8.1,-,0.12,Rain,Light Rain,320,2012-09-17 09:51:00
4:53 AM,53.1,51.1,93,29.96,5.0,NNW,9.2,-,0.13,Rain,Light Rain,330,2012-09-17 09:53:00
5:00 AM,53.6,51.8,94,29.97,9.0,North,8.1,-,0.00,Rain,Light Rain,350,2012-09-17 10:00:00
5:26 AM,51.8,50.0,94,29.96,10.0,NNW,9.2,-,N/A,Rain,Light Rain,340,2012-09-17 10:26:00
5:53 AM,53.1,50.0,89,29.98,7.0,WNW,4.6,-,0.02,Rain,Light Rain,290,2012-09-17 10:53:00
6:53 AM,52.0,50.0,93,29.96,10.0,NNW,6.9,-,0.01,,Overcast,330,2012-09-17 11:53:00
7:53 AM,52.0,48.0,86,29.97,10.0,NNW,8.1,-,N/A,,Overcast,330,2012-09-17 12:53:00
8:53 AM,52.0,46.0,80,29.97,10.0,NNW,11.5,-,N/A,,Overcast,330,2012-09-17 13:53:00
9:53 AM,52.0,44.1,74,30.00,10.0,NW,13.8,-,N/A,,Mostly Cloudy,320,2012-09-17 14:53:00
10:53 AM,54.0,44.1,69,30.00,10.0,NNW,10.4,-,N/A,,Mostly Cloudy,330,2012-09-17 15:53:00
11:53 AM,57.0,43.0,59,30.00,10.0,North,15.0,-,N/A,,Mostly Cloudy,350,2012-09-17 16:53:00
12:53 PM,60.1,42.1,51,29.99,10.0,NW,13.8,23.0,N/A,,Mostly Cloudy,320,2012-09-17 17:53:00
1:53 PM,62.1,39.9,44,29.97,10.0,North,12.7,17.3,N/A,,Scattered Clouds,350,2012-09-17 18:53:00
2:53 PM,63.0,36.0,37,29.96,10.0,NNW,12.7,-,N/A,,Mostly Cloudy,340,2012-09-17 19:53:00
3:53 PM,61.0,35.1,38,29.96,10.0,NNW,15.0,-,N/A,,Mostly Cloudy,340,2012-09-17 20:53:00
4:53 PM,60.1,34.0,38,29.96,10.0,NNW,15.0,20.7,N/A,,Mostly Cloudy,340,2012-09-17 21:53:00
5:53 PM,60.1,34.0,38,29.96,10.0,North,12.7,25.3,N/A,,Scattered Clouds,360,2012-09-17 22:53:00
6:53 PM,57.0,34.0,42,29.97,10.0,North,12.7,18.4,N/A,,Scattered Clouds,350,2012-09-17 23:53:00
7:53 PM,55.9,33.1,42,29.99,10.0,North,9.2,-,N/A,,Mostly Cloudy,360,2012-09-18 00:53:00
8:53 PM,55.4,33.8,44,29.99,10.0,North,6.9,-,N/A,,Mostly Cloudy,350,2012-09-18 01:53:00
9:53 PM,54.0,35.1,49,30.00,10.0,NNW,6.9,-,N/A,,Mostly Cloudy,340,2012-09-18 02:53:00
10:53 PM,52.0,36.0,54,30.01,10.0,NNW,12.7,23.0,N/A,,Scattered Clouds,330,2012-09-18 03:53:00
11:53 PM,51.1,34.0,52,30.00,10.0,North,11.5,-,N/A,,Mostly Cloudy,350,2012-09-18 04:53:00